Wind_Speed
48 45 42 40 40 40 41 41 41 40 40 44 53 65 77 86 92 96 100 104 109 115 122 127 129 129 125 122 121 120 117 113 108 101 94 90 86 83 79 77 75 75 75 75 75 76 77 79 82 85 87 88 87 86 85 83 81 79 77 75 73 71 69 67 65 63 62 61 61 61 61 61 62 63 64 64 63 62 62 62 63 64 66 67 67 66
48 45 43 41 40 41 42 42 42 41 41 44 52 63 75 85 92 96 100 104 108 114 120 126 129 130 127 124 123 121 119 115 110 104 97 92 87 83 79 76 75 75 74 74 75 76 76 77 80 82 85 86 86 86 85 84 82 80 78 75 73 71 69 68 67 66 65 64 64 65 65 65 66 66 66 65 63 61 59 58 59 60 62 64 65 65
49 46 43 41 40 41 42 43 43 42 42 44 50 61 73 84 91 96 100 104 108 113 118 124 129 130 129 127 125 123 121 118 113 107 100 94 88 83 79 76 75 74 74 74 75 76 77 78 79 81 83 85 85 85 85 84 82 80 78 76 74 72 71 69 69 68 68 68 68 68 68 69 69 69 68 67 64 62 59 57 57 58 60 62 63 64
49 46 44 42 41 42 43 44 44 43 43 44 50 59 71 82 91 96 100 104 107 111 117 122 127 130 131 129 127 125 124 121 116 111 104 96 89 83 79 76 75 75 75 75 76 77 77 78 80 81 83 84 85 85 85 84 82 81 79 77 76 74 73 72 71 71 70 70 70 71 71 71 71 70 69 68 66 64 61 60 59 59 60 61 62 62
49 46 44 42 42 42 43 45 45 44 44 45 49 57 68 80 90 96 100 103 107 111 115 121 126 129 131 130 129 127 126 124 120 114 108 99 90 84 80 78 77 76 75 75 76 77 78 79 80 81 83 84 85 85 85 84 82 81 80 78 77 76 74 74 73 73 72 72 72 72 73 73 72 72 70 69 68 66 65 63 63 62 62 62 62 62
49 46 44 43 42 43 44 45 46 46 45 45 49 56 66 78 89 96 100 104 107 110 114 119 124 128 131 131 130 129 128 126 123 117 111 101 92 85 81 79 78 77 76 76 76 77 77 79 80 81 83 84 85 85 85 84 83 82 80 79 78 77 76 75 75 74 74 74 74 74 74 74 73 72 71 70 69 68 67 67 66 65 64 63 63 63
49 47 45 43 43 43 44 46 47 47 46 46 49 55 64 76 87 95 100 104 107 110 113 118 123 127 131 132 131 130 130 128 125 120 113 104 95 88 83 81 80 79 77 77 76 76 77 78 80 81 82 84 85 85 85 84 83 82 81 80 79 78 78 77 76 75 75 75 75 75 75 75 74 73 72 71 70 69 69 69 68 67 66 65 65 65
50 47 45 44 43 44 45 47 48 48 47 47 49 54 63 74 85 94 100 104 107 109 113 117 122 127 130 132 132 131 131 130 127 121 115 107 98 91 86 83 81 80 79 77 76 75 76 77 79 80 82 83 84 85 85 84 84 83 82 82 81 80 79 78 77 76 76 76 76 76 77 76 76 75 74 73 72 71 71 70 70 69 68 67 66 66
51 48 46 44 44 44 45 47 48 49 48 48 49 53 61 71 83 93 100 104 107 109 113 117 122 126 130 132 132 132 132 131 128 123 117 110 102 94 88 85 84 82 80 78 76 75 75 76 78 80 82 83 84 85 85 84 84 83 83 83 82 82 81 80 79 78 77 77 77 77 78 78 77 76 75 74 74 73 72 72 71 70 69 68 68 67
51 49 47 45 44 45 46 47 49 50 50 49 50 53 60 69 81 92 100 104 107 110 113 117 121 126 130 133 133 133 133 132 129 124 119 113 105 98 92 88 86 84 82 80 77 75 75 75 77 79 81 82 83 84 84 84 84 84 84 84 84 83 83 82 81 80 78 78 78 78 78 78 78 77 76 75 75 75 74 73 72 71 70 70 69 68
52 50 48 46 45 45 47 48 50 51 51 50 51 53 59 67 78 90 99 104 107 110 113 117 121 126 131 133 134 134 134 133 130 126 121 116 109 102 95 91 89 87 84 81 78 76 75 75 76 78 80 81 82 82 82 83 83 83 84 84 85 85 85 84 83 82 80 79 79 78 78 78 78 77 76 76 76 75 75 75 74 73 72 71 70 69
52 51 49 48 47 46 47 49 51 52 52 52 52 54 58 66 76 87 98 104 108 110 113 117 121 126 131 134 135 135 135 134 131 128 123 118 112 105 99 94 91 89 86 83 80 78 76 76 76 77 78 79 80 80 80 81 81 82 83 84 85 86 86 86 86 84 83 81 80 79 79 78 77 77 76 76 76 76 75 75 75 74 73 72 71 70
53 52 50 49 48 47 48 49 51 53 54 53 53 55 58 65 73 84 95 103 108 111 114 117 121 126 131 134 136 136 136 135 133 129 125 121 115 108 102 97 94 91 88 85 82 80 78 77 77 77 78 78 79 79 79 80 81 81 82 84 85 86 87 88 87 86 85 83 82 81 80 79 77 76 76 75 75 76 76 76 76 75 75 74 73 72
53 53 51 50 49 48 49 50 52 54 55 55 55 56 59 64 72 82 93 102 108 111 114 117 121 126 131 135 137 138 137 136 134 131 128 124 118 111 104 99 96 94 90 87 84 82 80 79 79 78 78 79 79 79 80 80 81 82 83 84 85 86 87 88 88 88 86 85 84 82 81 80 78 77 76 76 76 76 77 77 76 76 75 75 74 73
54 53 53 52 51 50 50 51 53 55 56 57 57 57 59 64 71 80 90 100 107 112 114 117 120 125 130 135 138 139 138 137 135 133 130 126 121 114 107 102 99 96 92 89 87 85 83 81 80 80 80 79 80 80 81 81 83 84 85 85 86 87 87 88 89 88 88 87 85 84 82 81 80 78 78 78 78 78 78 78 77 77 77 76 75 74
55 55 54 53 52 51 51 52 54 55 57 58 58 58 60 64 70 78 88 98 106 112 115 117 120 125 130 135 139 140 140 138 136 134 132 129 123 117 110 105 101 98 94 92 89 87 86 84 82 82 81 81 81 81 82 83 84 86 86 87 87 88 88 88 89 89 89 88 86 85 84 82 81 80 80 80 80 80 80 79 79 78 78 77 76 75
55 55 55 55 54 53 53 53 55 56 58 59 59 60 61 65 70 77 86 96 105 112 115 118 120 124 129 134 138 140 141 140 138 136 134 131 126 120 114 108 104 100 97 94 92 90 88 86 85 84 83 82 82 82 83 84 86 87 88 88 89 89 89 89 90 90 89 88 87 86 85 83 82 82 81 81 81 81 81 81 80 80 79 78 77 76
55 56 56 56 56 55 54 54 56 57 59 60 61 62 63 66 70 76 84 93 103 110 116 118 121 124 128 133 138 141 142 141 140 138 136 133 128 123 117 111 106 103 100 97 96 94 92 90 88 87 85 84 84 84 84 86 87 88 89 90 90 91 91 91 91 91 90 88 87 86 85 84 83 83 82 82 82 82 82 82 82 81 80 79 78 77
56 56 57 58 57 57 56 56 57 58 60 62 63 63 64 66 70 76 83 91 100 109 115 119 121 124 128 133 137 141 142 143 142 141 138 135 131 126 120 114 110 106 104 102 100 98 96 93 91 90 88 86 86 85 86 88 89 90 91 91 92 92 92 93 92 92 90 89 88 87 86 85 84 83 83 82 82 82 82 82 82 81 80 79 79 79
57 57 58 59 59 58 58 58 58 60 61 63 64 65 66 67 71 76 83 90 98 107 114 119 122 124 127 132 136 140 142 143 144 143 141 137 133 128 123 118 114 111 109 107 105 103 100 97 95 93 91 89 87 87 88 89 91 92 93 93 93 93 94 94 93 93 91 90 88 87 87 86 85 84 83 83 83 82 82 82 81 81 80 80 80 81
58 59 59 60 60 60 60 60 60 61 63 64 65 66 67 69 72 76 83 90 97 105 112 118 122 124 127 130 135 138 141 144 145 145 143 140 136 132 127 123 119 116 115 114 111 108 104 101 98 96 94 91 90 89 89 91 93 94 95 95 95 94 94 94 94 93 92 91 90 89 88 87 86 85 84 84 83 83 82 82 81 81 81 81 82 83
60 60 60 61 61 61 62 61 62 62 64 65 67 68 69 70 72 77 83 89 96 103 110 117 121 124 127 130 134 138 141 143 146 147 145 142 139 135 131 127 124 122 122 120 117 113 109 106 102 99 97 94 92 91 91 93 95 96 97 97 97 96 96 95 94 94 93 92 91 91 90 88 87 86 85 85 85 84 84 83 82 81 81 82 83 84
62 62 62 62 63 63 63 63 63 64 65 67 69 70 71 72 74 77 83 89 95 102 109 115 120 124 127 130 133 136 140 143 146 147 147 145 142 139 135 132 130 128 128 126 123 119 115 111 107 103 100 97 94 93 93 94 96 98 99 99 99 98 97 96 95 94 94 93 92 92 91 90 89 88 87 87 86 86 85 84 83 82 82 82 83 84
64 63 63 64 64 65 65 65 65 66 67 68 70 72 73 73 75 78 83 89 95 102 108 114 119 123 127 129 132 135 139 142 145 147 148 147 145 142 139 136 135 134 132 131 128 124 120 116 112 108 104 100 97 96 95 96 98 100 101 101 101 100 99 98 97 95 94 94 93 92 91 91 90 89 89 88 88 87 87 86 84 83 83 83 83 84
66 65 65 65 66 66 67 67 67 67 68 70 72 73 74 75 76 78 82 88 95 101 107 112 118 123 127 130 132 135 138 142 145 147 148 148 147 145 142 140 138 137 136 134 131 128 125 121 117 112 108 104 101 99 98 98 100 101 103 103 103 102 101 100 98 97 95 94 93 93 92 91 91 90 90 90 89 89 89 88 86 85 84 84 84 84
69 67 67 67 67 68 69 69 69 69 70 71 73 75 76 77 78 80 83 88 94 100 106 112 118 123 127 130 132 134 137 141 144 147 149 149 148 147 145 143 141 140 138 136 134 131 128 125 122 117 113 108 104 102 100 101 102 103 105 105 105 105 103 102 100 98 97 95 94 93 92 92 92 91 91 91 91 90 90 89 88 87 86 85 85 85
72 70 69 69 69 69 70 71 71 71 72 73 75 77 78 79 80 81 84 88 94 100 106 112 117 123 127 130 132 134 137 140 143 146 149 150 149 148 146 145 143 141 139 136 134 133 131 129 126 122 118 113 109 105 103 103 104 105 106 107 107 107 106 104 102 101 99 96 95 94 93 93 93 92 92 91 91 91 91 91 90 89 88 87 87 87
75 73 71 71 71 71 72 73 73 74 74 75 76 78 80 81 82 83 86 89 94 99 105 111 117 122 126 130 133 135 137 139 142 146 148 149 149 148 147 146 144 142 139 136 134 133 132 131 129 126 123 118 114 110 107 106 106 107 108 109 109 109 108 106 105 103 101 98 97 95 95 94 94 93 93 92 92 92 92 92 91 91 90 89 89 89
78 76 74 73 72 73 73 74 75 76 76 77 78 80 81 83 84 86 88 90 93 98 105 111 117 121 126 130 133 135 136 139 142 145 148 149 149 149 148 146 144 142 139 135 133 132 132 131 130 129 126 123 118 114 111 110 109 110 110 111 111 111 110 109 107 105 103 101 99 97 96 96 95 95 94 94 93 93 92 92 92 92 91 91 91 91
82 79 76 75 74 74 75 76 77 78 79 79 80 81 83 85 87 88 89 91 93 98 104 110 116 121 126 130 133 135 137 139 142 145 147 148 149 149 148 146 144 142 138 134 131 130 130 131 131 130 128 126 123 119 116 113 112 112 113 113 113 113 113 111 109 107 105 103 101 99 98 97 97 96 96 95 95 94 94 93 93 93 93 93 93 93
85 82 80 78 76 76 76 77 78 80 81 82 82 83 85 86 88 90 91 92 94 99 104 109 115 120 125 129 131 134 137 139 142 144 146 148 149 149 148 146 144 142 138 134 131 129 129 130 131 130 129 128 126 123 120 118 116 115 115 115 115 115 115 114 112 110 108 106 104 102 100 99 98 98 97 97 96 95 95 95 95 95 95 94 94 94
89 86 83 81 79 78 78 78 80 81 82 84 85 86 87 88 90 92 93 94 96 99 104 109 114 119 124 128 132 135 138 140 142 144 146 148 149 149 148 146 144 142 139 135 131 129 129 130 130 130 129 128 127 126 123 121 119 118 118 118 118 118 117 116 115 113 111 109 107 105 103 102 101 100 99 98 97 97 96 96 97 97 97 97 96 96
92 90 87 85 82 81 80 80 81 82 84 85 87 88 89 90 92 93 95 96 98 100 103 108 113 118 123 128 132 136 139 140 142 144 146 148 149 149 147 145 143 142 139 136 132 130 129 130 130 130 129 129 128 127 126 124 122 121 120 120 120 120 120 119 118 116 115 113 111 109 107 105 104 102 101 100 99 98 97 97 98 98 99 99 99 99
95 93 91 89 86 84 83 82 83 83 85 87 88 90 91 93 94 95 97 98 100 101 104 108 112 117 122 127 131 135 138 140 142 144 146 148 149 149 148 145 143 142 140 136 133 130 129 130 130 130 129 129 129 128 127 126 125 124 123 122 122 122 122 121 120 119 118 116 114 112 110 109 107 105 104 102 101 99 98 98 98 99 100 101 101 102
97 95 94 92 90 88 87 85 85 85 87 88 90 92 93 95 96 97 99 100 102 103 105 108 112 117 121 126 130 134 138 140 142 144 146 148 150 149 148 145 144 142 140 137 134 131 130 130 131 131 130 129 129 129 128 127 127 126 125 124 124 124 124 123 123 122 120 119 117 116 114 112 110 108 107 105 103 101 100 99 99 99 100 101 103 103
97 97 95 94 93 92 90 89 88 88 89 90 92 93 95 96 98 99 101 102 104 105 107 109 113 117 121 125 130 133 137 140 143 145 147 149 150 150 148 146 145 143 141 139 136 133 131 131 132 132 131 130 130 130 129 129 128 127 127 126 126 125 125 125 124 124 123 121 120 119 117 115 113 111 110 108 106 104 102 100 100 100 101 102 103 104
98 97 96 95 95 94 93 93 92 91 91 92 93 95 97 98 100 101 103 104 106 107 109 111 113 117 121 125 129 133 137 140 143 145 147 149 151 151 150 148 146 144 142 140 138 135 133 132 132 133 133 132 131 131 131 130 129 129 128 128 127 127 127 126 126 125 124 123 122 121 119 118 116 114 113 111 109 107 105 103 102 101 101 102 103 104
97 97 96 96 96 96 95 95 95 95 95 95 96 97 98 100 101 103 105 106 108 109 110 112 115 117 121 125 129 133 136 139 142 145 147 150 151 152 151 149 147 145 143 142 140 138 135 133 133 134 134 133 133 132 132 131 130 130 130 129 129 128 128 127 127 126 125 125 124 123 121 120 119 117 115 114 112 110 108 106 105 104 103 104 104 104
96 96 97 96 97 97 97 97 98 98 98 98 98 99 100 101 103 104 106 108 110 111 113 114 116 119 122 125 129 133 136 139 142 145 147 150 152 153 153 151 148 146 144 143 142 140 137 135 134 135 135 135 135 134 133 132 132 131 131 131 130 129 129 128 128 127 126 126 125 124 123 122 121 120 118 117 115 114 112 110 109 107 106 106 105 105
96 96 96 97 97 98 98 99 99 100 100 100 101 101 102 103 104 106 108 110 112 114 115 117 118 120 123 126 129 132 136 139 142 145 148 150 153 154 154 153 150 148 146 145 144 142 139 137 136 136 137 137 136 135 134 133 133 133 132 131 131 131 130 129 129 128 127 127 126 125 124 124 123 122 121 120 118 117 115 114 113 111 110 108 107 107
95 96 96 97 98 98 99 100 101 101 102 103 103 104 104 106 107 108 110 112 114 116 118 119 120 122 124 127 129 133 136 139 142 145 148 150 153 155 156 155 153 150 148 146 145 144 142 139 138 137 137 138 137 137 136 135 134 134 133 132 132 132 132 131 130 129 129 128 127 127 126 125 124 124 123 122 121 120 119 117 116 114 113 111 110 109
95 95 96 97 98 99 100 100 101 102 103 104 105 106 107 109 110 111 113 114 116 118 120 121 122 124 125 127 130 133 136 140 142 145 148 150 153 155 157 157 155 153 150 149 147 146 145 142 140 139 138 138 138 138 137 137 136 135 134 134 134 133 133 132 132 131 130 129 129 128 127 127 126 125 125 124 123 122 121 120 118 117 115 114 113 111
94 95 96 97 98 99 100 101 102 103 105 106 108 109 110 112 113 114 115 117 119 121 123 124 125 126 128 129 131 134 137 140 143 146 148 151 153 155 157 158 157 155 153 151 150 149 148 145 143 141 140 140 139 139 139 138 138 137 136 136 135 134 134 133 133 132 131 131 130 130 129 128 128 127 126 126 125 124 123 122 120 119 118 117 115 114
93 94 95 96 97 99 100 101 102 104 105 107 109 111 113 114 115 117 118 119 121 123 125 127 128 129 130 131 133 135 137 141 144 146 149 151 153 156 158 159 159 158 156 153 152 151 151 149 146 144 142 141 140 140 140 140 139 138 138 137 136 135 135 135 135 134 133 132 132 131 130 130 129 128 128 127 126 125 124 123 122 121 120 119 118 116
92 93 94 95 97 98 99 101 102 104 106 108 110 112 114 116 118 119 121 122 124 126 127 129 131 132 133 134 135 136 138 141 144 147 149 152 154 156 158 160 161 160 158 156 155 154 153 152 150 147 145 142 141 141 141 141 141 140 139 138 138 137 137 136 136 135 134 134 133 132 132 131 130 129 129 128 127 127 126 125 124 123 122 121 120 118
90 91 92 94 95 97 98 100 102 103 105 108 110 113 115 117 119 121 123 125 126 128 130 132 133 134 135 136 138 139 140 142 144 147 150 152 154 156 158 160 162 162 161 159 158 157 156 155 154 151 148 145 143 142 142 142 142 142 141 140 139 138 138 137 137 136 135 135 134 134 133 132 131 130 130 129 129 128 127 126 125 124 123 122 121 120
88 89 91 92 94 95 97 99 101 102 105 107 110 113 115 118 120 122 124 126 128 130 132 134 135 137 138 139 140 141 142 143 146 148 151 153 155 157 159 161 162 163 163 162 160 159 159 158 157 155 152 148 145 143 143 143 143 143 142 142 141 139 138 138 138 137 137 136 135 135 134 133 132 131 131 130 129 129 128 127 126 125 124 123 122 121
85 86 88 90 92 94 96 97 99 101 103 106 109 112 115 118 120 123 125 128 130 131 133 135 137 139 141 142 142 143 144 145 147 149 151 154 156 158 160 161 163 164 165 164 163 162 161 161 160 159 156 153 149 146 144 144 144 144 144 144 142 141 140 139 139 138 138 137 136 136 135 134 133 132 131 131 130 129 128 128 127 126 125 124 122 121
81 83 85 87 89 92 94 96 98 100 102 104 107 110 113 117 120 123 125 128 130 132 134 136 139 141 143 144 145 145 146 147 149 151 153 155 157 159 160 162 163 165 166 166 165 164 163 163 163 162 160 157 154 150 147 146 145 145 145 145 144 144 142 142 141 140 139 138 137 136 136 135 134 133 132 132 131 130 129 128 127 126 125 124 123 122
78 80 82 84 87 89 92 94 96 98 100 103 105 108 112 115 119 122 125 128 130 133 135 137 140 142 144 146 147 147 148 149 150 152 154 156 158 160 161 163 164 165 166 167 167 166 165 165 165 164 163 161 158 155 151 149 147 146 146 146 146 146 145 144 143 142 140 139 138 137 136 136 135 134 133 132 131 131 130 129 128 127 126 125 124 123
74 76 79 81 84 86 89 92 94 96 99 101 104 106 110 113 117 120 123 126 129 132 135 138 140 143 145 147 149 149 150 151 152 153 155 156 158 160 162 164 165 166 167 168 168 168 167 166 166 166 166 165 163 160 157 153 150 148 147 147 147 148 147 147 146 144 143 141 140 139 137 136 135 135 134 133 132 131 130 129 129 128 127 126 124 123
Wind_Direction
280 276 272 268 265 263 262 261 260 255 247 236 225 218 213 210 208 207 206 204 203 202 202 202 202 202 202 202 202 202 202 203 204 204 206 208 210 212 214 215 215 215 215 215 215 215 216 217 217 216 216 216 216 216 217 218 219 220 221 222 222 222 223 223 224 225 226 226 226 227 229 231 234 236 239 241 242 243 243 244 244 244 244 244 244 245
278 275 270 266 262 260 259 259 258 255 248 237 227 219 214 210 208 207 206 205 204 203 203 202 202 202 202 202 202 202 203 204 204 204 205 208 210 212 214 215 215 215 215 215 216 216 217 217 217 217 217 216 216 216 216 217 218 219 219 220 220 221 222 224 225 225 226 225 226 226 227 229 232 234 236 237 237 238 240 242 244 245 246 246 246 246
276 273 268 264 260 257 256 257 256 254 248 239 229 221 215 211 209 208 207 206 205 204 203 203 203 203 203 203 203 203 204 205 205 204 205 208 210 212 213 214 214 214 215 216 216 217 218 218 218 218 217 216 216 216 216 216 217 218 218 219 220 220 222 224 225 226 226 226 226 226 227 228 230 232 234 234 234 234 235 238 241 244 245 246 247 247
274 271 267 262 257 255 254 254 254 253 248 240 231 222 216 212 209 208 207 206 206 205 204 204 203 203 203 203 203 203 204 205 205 205 205 207 209 211 213 213 214 214 214 215 217 218 218 219 219 218 218 217 216 216 216 216 217 218 218 219 219 220 221 223 225 226 227 227 227 227 227 228 230 232 233 233 233 233 234 236 238 241 243 245 247 248
272 269 265 260 255 252 251 252 252 251 248 241 232 224 217 213 210 208 207 207 206 206 205 204 204 204 204 204 204 204 205 205 205 205 205 207 209 211 212 213 213 213 214 215 216 217 218 219 219 219 218 218 217 217 217 217 218 218 218 219 219 220 222 224 225 227 228 228 228 228 228 229 230 232 234 234 233 233 234 235 237 239 241 243 245 246
270 267 263 258 254 250 249 249 250 250 247 242 234 225 219 214 211 209 208 207 207 206 205 205 204 204 204 204 204 204 205 206 206 205 205 206 208 210 212 212 213 213 214 215 216 217 218 219 219 220 219 219 218 217 218 218 219 219 219 219 220 221 222 224 226 228 229 229 229 229 229 230 231 233 234 235 234 234 235 236 237 239 240 242 243 245
269 265 261 256 252 248 247 247 247 248 246 242 235 227 220 215 212 209 208 208 207 206 206 205 204 204 204 204 204 204 205 206 206 205 205 206 208 210 211 212 212 213 214 215 216 217 217 219 219 220 220 219 219 219 219 219 220 220 220 220 221 222 223 225 227 229 230 231 231 230 230 231 232 233 235 235 235 235 235 236 237 238 240 241 242 244
267 263 259 255 250 247 245 244 245 246 245 242 236 228 221 216 212 210 209 208 207 207 206 205 205 204 204 204 203 204 205 206 206 206 205 206 207 209 211 212 212 213 213 214 215 216 217 218 219 220 220 220 220 220 220 220 220 221 221 221 222 223 224 226 228 230 231 232 232 232 232 232 233 234 235 235 235 235 235 236 237 238 240 241 242 243
266 262 257 253 248 245 242 242 243 244 243 241 236 229 223 217 213 211 209 208 207 207 206 206 205 205 204 203 203 203 205 206 206 206 205 206 207 209 211 212 212 213 213 214 215 216 217 218 219 220 221 221 221 221 221 221 221 222 222 222 223 224 225 226 228 230 232 233 234 234 234 234 234 235 235 235 235 235 236 236 237 238 239 240 241 242
264 261 257 252 247 243 241 240 241 242 242 240 236 230 224 218 214 211 209 208 208 207 207 206 205 205 204 203 203 203 204 206 206 206 205 206 207 208 210 212 212 213 213 215 216 216 217 217 218 219 221 221 222 222 222 222 222 223 223 223 224 224 225 227 228 230 232 234 234 235 235 235 236 236 236 236 236 236 236 237 237 238 238 239 240 240
263 260 256 251 246 241 239 238 239 240 240 239 236 231 225 219 215 212 210 209 208 207 207 206 206 205 204 204 203 203 204 206 206 206 206 206 207 208 210 212 212 213 213 214 216 216 216 217 218 219 220 221 222 223 223 223 224 224 224 224 224 225 226 227 228 230 232 233 234 235 236 236 236 237 237 236 236 236 236 237 237 237 238 238 238 239
261 258 255 251 246 241 237 236 237 238 238 238 236 231 226 220 216 213 210 209 208 208 207 207 206 205 205 204 203 203 204 206 206 206 206 206 207 208 210 212 212 213 213 214 215 216 216 216 217 218 219 220 222 223 224 224 225 225 225 225 225 225 226 227 228 230 232 233 234 235 236 236 237 237 237 236 236 236 236 236 236 237 237 237 238 238
259 257 254 250 245 240 236 234 234 235 236 237 235 231 226 221 217 213 211 209 208 208 207 207 207 206 205 204 204 204 205 206 206 206 206 206 207 208 210 211 212 213 213 214 215 216 216 216 216 217 218 219 221 222 224 225 226 226 226 226 226 226 227 227 229 230 231 233 234 235 236 236 236 236 236 235 235 235 235 236 236 237 237 237 238 238
258 256 253 249 245 240 235 233 232 233 234 235 234 231 227 222 217 214 212 210 209 208 208 207 207 206 205 205 204 204 205 206 206 207 206 206 207 208 210 211 212 213 214 215 215 216 216 216 216 217 218 219 221 222 224 225 226 227 227 226 226 226 227 228 229 230 231 233 234 234 235 236 236 236 235 234 234 235 235 236 237 237 237 238 238 238
257 255 252 249 245 240 235 232 231 231 232 234 234 231 227 222 218 215 212 210 209 208 208 208 207 207 206 205 205 205 205 206 206 207 207 207 207 208 210 211 213 213 214 215 216 216 216 216 216 217 218 219 221 223 224 226 226 227 227 227 226 226 227 228 229 230 231 232 233 234 235 235 235 235 234 234 234 235 235 236 237 237 238 238 238 239
255 254 251 248 245 240 236 232 230 230 231 232 232 231 228 223 219 215 213 211 210 209 208 208 208 207 206 206 205 205 205 206 207 207 208 207 207 208 210 211 213 213 214 215 216 217 217 217 217 217 218 220 222 224 225 226 227 228 228 227 226 226 227 228 229 230 231 232 233 233 234 235 235 235 234 234 234 234 235 236 237 238 238 238 239 239
254 252 250 248 244 240 236 232 229 228 229 230 231 230 228 224 219 216 213 211 210 209 209 209 208 208 207 207 206 206 206 206 207 207 208 208 208 208 210 211 213 213 214 215 216 217 218 218 218 218 219 221 222 224 226 227 228 228 228 228 227 227 227 228 229 230 231 232 232 233 234 234 234 234 234 233 234 234 235 236 237 238 238 239 239 239
252 251 249 247 244 241 236 232 229 228 228 228 229 229 228 225 220 217 214 212 210 209 209 209 209 208 208 207 207 207 206 206 207 208 209 209 209 209 210 211 213 213 214 215 216 218 218 219 219 219 220 222 223 225 226 227 227 228 229 229 228 228 228 228 229 230 231 231 232 232 233 234 234 234 233 233 233 234 235 236 237 238 239 239 239 239
250 249 248 246 244 241 237 233 229 227 226 227 228 228 228 225 221 217 214 212 211 210 209 209 209 209 208 208 208 207 207 207 207 208 209 210 209 209 209 211 212 213 214 215 216 218 219 220 220 220 221 222 224 225 226 226 227 228 229 229 229 229 229 229 229 230 230 231 231 232 233 233 233 233 233 233 233 234 235 236 238 238 239 239 239 239
250 248 247 245 243 241 238 234 230 227 226 226 226 227 227 225 222 218 215 213 211 210 210 209 210 209 209 209 208 208 207 207 207 208 210 210 210 209 209 210 212 213 214 215 216 218 220 220 221 222 222 223 224 225 226 226 227 228 228 229 230 230 229 229 229 230 230 230 231 232 232 233 233 233 232 232 233 233 235 236 237 238 239 239 239 239
251 248 246 244 243 241 238 234 231 227 225 225 225 226 226 225 223 219 216 213 212 211 210 210 210 210 210 209 209 209 208 208 208 209 210 211 210 210 209 210 212 213 214 215 217 218 220 221 222 223 223 224 225 226 226 226 227 227 228 229 229 230 230 230 230 230 230 230 230 231 232 232 233 233 232 232 232 233 235 236 237 238 239 239 239 239
252 249 246 244 242 240 238 235 231 228 225 224 224 224 225 224 223 220 217 214 212 211 210 210 210 210 210 210 210 209 209 208 209 209 210 211 211 210 210 210 212 213 215 216 217 218 220 221 222 223 224 225 225 226 226 226 226 227 227 228 229 229 230 230 230 230 230 229 230 230 231 232 232 232 232 232 232 233 235 236 237 238 239 239 240 240
252 249 247 244 242 240 238 235 232 229 226 224 223 223 224 224 223 221 218 215 213 211 211 210 210 210 210 210 210 210 209 209 209 210 210 211 212 211 210 211 212 214 215 216 217 218 220 221 222 223 224 225 225 226 226 226 226 227 227 228 228 229 229 229 230 230 229 229 229 229 230 231 232 232 232 232 233 233 235 236 237 238 239 240 240 241
253 250 247 245 242 240 238 236 233 230 227 224 223 223 223 223 222 221 219 216 214 212 211 210 210 211 211 211 211 210 210 210 210 210 211 212 212 212 211 212 213 214 216 217 218 219 220 221 222 223 224 225 225 226 226 226 227 227 227 227 228 228 229 229 229 229 229 229 229 229 229 230 231 232 232 232 233 233 235 236 237 238 239 240 241 242
253 250 248 245 243 240 238 236 233 231 228 225 223 222 222 222 222 221 219 217 215 213 211 211 211 211 211 211 211 211 210 210 210 211 211 212 213 213 213 213 214 215 217 219 220 220 220 221 222 223 224 225 225 226 226 226 226 226 227 227 227 228 228 228 229 229 229 229 229 229 229 229 230 231 232 232 233 233 234 235 236 237 238 239 240 242
255 251 248 246 243 241 238 236 234 231 229 226 224 222 221 221 221 221 220 218 216 214 212 211 211 211 211 211 211 211 211 211 211 211 212 213 214 214 214 214 215 217 218 220 221 221 221 222 222 223 224 225 225 226 226 226 226 226 227 227 227 227 228 228 228 228 229 229 229 229 229 229 230 231 231 232 232 233 234 235 236 237 237 239 240 241
256 253 250 246 244 241 239 237 234 232 229 227 224 222 221 221 220 220 219 218 216 214 213 212 211 211 211 211 212 212 211 211 211 211 212 213 214 215 216 216 216 218 219 221 222 222 223 222 223 223 224 225 225 226 226 226 226 226 227 227 227 227 228 228 228 228 228 228 228 228 229 229 230 230 231 232 232 232 233 234 235 236 237 238 239 240
258 254 251 248 245 242 239 237 235 232 230 228 225 223 221 220 220 220 219 218 217 215 214 212 212 211 211 211 212 212 212 212 212 212 212 213 215 216 217 217 217 218 220 221 223 223 224 223 223 224 224 225 225 226 226 226 226 226 227 227 227 227 227 228 228 228 228 228 228 228 229 229 230 231 231 231 231 231 232 232 233 234 235 237 238 239
259 256 252 249 246 242 240 237 235 233 231 228 226 223 221 220 220 219 219 218 217 216 214 213 212 212 212 212 212 212 212 212 212 212 213 214 215 216 217 218 218 219 220 222 223 224 224 224 224 224 224 225 225 226 226 226 226 227 227 227 227 227 227 228 228 228 228 228 228 228 229 230 230 231 231 231 231 231 231 231 232 233 234 235 237 239
260 257 254 250 247 244 240 238 235 233 231 229 227 224 222 221 220 219 219 218 217 216 215 214 213 212 212 212 212 212 212 212 212 212 213 214 215 217 218 218 219 220 220 221 223 224 225 225 225 225 225 225 226 226 226 227 227 227 227 227 227 227 227 228 228 228 228 228 228 229 229 230 230 231 232 232 231 231 230 230 230 231 233 234 236 238
261 259 256 252 248 245 242 239 236 234 232 229 227 225 223 221 220 219 219 218 218 217 216 214 214 213 213 212 212 212 213 213 213 212 213 214 215 217 218 219 220 220 220 221 222 224 225 226 226 226 226 226 226 226 227 227 227 227 227 227 227 227 228 228 228 228 228 228 228 229 229 230 230 231 232 232 232 231 230 230 230 230 232 233 235 237
262 260 257 254 250 246 243 240 237 234 232 230 228 226 224 222 220 220 219 218 218 217 216 215 214 214 213 213 213 213 213 213 213 213 213 214 215 216 218 219 220 220 220 221 221 223 224 225 226 226 226 226 226 226 227 227 227 227 227 227 228 228 228 228 228 229 229 229 229 229 229 230 230 231 231 232 232 232 231 230 230 230 231 232 234 235
262 261 258 255 252 248 245 241 238 235 233 231 229 226 224 222 221 220 219 218 218 217 216 215 215 214 214 213 213 213 213 213 213 213 213 214 215 216 218 219 220 220 220 220 221 222 223 225 225 225 225 226 226 226 227 227 227 227 228 228 228 228 228 228 229 229 229 229 229 229 229 230 230 230 231 231 232 232 232 231 231 231 232 232 233 235
262 260 259 256 253 250 246 243 239 236 233 231 229 227 225 223 221 220 219 218 218 217 217 216 215 214 214 214 214 214 213 213 213 213 213 214 215 216 217 219 220 220 220 220 220 221 223 224 225 225 225 225 226 226 226 227 227 228 228 228 228 228 229 229 229 229 229 229 230 230 230 230 230 230 231 231 231 232 232 232 232 232 233 233 234 235
261 259 258 256 254 251 248 245 241 238 234 232 230 228 226 224 222 221 219 218 218 217 217 216 215 215 214 214 214 214 214 214 214 213 213 214 215 216 217 219 220 220 220 220 220 220 222 223 224 225 225 225 225 226 226 227 227 227 228 228 228 228 229 229 229 229 230 230 230 230 230 230 230 230 230 231 231 232 232 232 233 233 234 235 235 236
259 258 257 255 253 251 249 246 242 239 236 233 230 228 226 224 222 221 220 219 218 217 217 216 216 215 215 214 215 215 215 214 214 214 214 214 214 215 217 218 219 220 220 219 219 220 221 223 224 225 225 225 225 226 226 226 227 227 228 228 228 229 229 229 229 229 230 230 230 230 230 230 230 230 230 230 231 231 232 232 233 234 235 236 237 237
258 257 255 253 252 250 248 246 243 240 237 234 231 228 227 225 223 221 220 219 218 217 217 216 216 215 215 215 215 215 215 215 215 214 214 214 214 215 216 217 219 219 220 219 219 219 220 222 223 224 225 225 225 226 226 226 227 227 227 228 228 229 229 229 229 229 230 230 230 230 230 230 230 230 230 230 231 231 232 232 233 234 235 236 237 238
256 255 253 252 250 248 247 245 243 240 237 234 231 229 227 225 223 222 220 219 218 218 217 216 216 215 215 215 215 215 215 215 215 215 215 214 214 215 216 217 218 219 219 219 219 219 220 221 223 224 225 225 225 226 226 226 226 227 227 228 228 228 229 229 229 229 230 230 230 230 230 230 230 230 230 230 231 231 232 233 233 234 235 236 237 238
255 253 251 250 248 246 245 243 241 239 237 234 232 229 227 225 224 222 221 220 219 218 217 217 216 216 215 215 215 215 215 215 216 215 215 215 215 215 216 217 217 218 219 219 218 218 219 220 222 224 224 225 225 226 226 226 226 226 227 227 228 228 228 229 229 229 229 230 230 230 230 230 230 230 230 231 231 231 232 233 234 235 236 236 237 238
253 252 250 248 246 245 243 241 239 238 236 234 232 229 227 225 224 222 221 220 219 218 217 217 216 216 215 215 215 215 215 215 216 216 216 215 215 215 216 216 217 218 218 218 218 218 218 220 221 223 224 225 225 225 226 226 226 226 227 227 227 228 228 229 229 229 229 230 230 230 230 230 230 231 231 231 231 232 232 233 234 235 236 237 237 238
252 250 248 247 245 243 242 240 238 236 235 233 231 229 227 225 223 222 221 220 219 218 217 217 216 216 215 215 215 215 215 216 216 216 216 216 216 215 216 216 217 217 218 218 218 218 218 219 220 222 224 224 225 225 225 226 226 226 226 227 227 228 228 228 229 229 229 230 230 230 230 230 231 231 231 232 232 232 233 234 235 235 236 237 237 238
251 249 247 246 244 242 241 239 237 235 233 232 230 228 226 224 223 221 220 220 219 218 217 217 216 216 215 215 215 215 215 216 216 216 216 216 216 216 216 216 217 217 217 217 217 217 217 218 220 221 223 224 225 225 226 226 226 226 226 226 227 228 228 228 229 229 229 229 230 230 230 231 231 231 232 232 232 233 234 234 235 236 236 237 238 238
249 248 246 244 243 241 240 238 236 234 233 231 229 228 226 224 222 221 220 219 218 218 217 216 216 216 215 215 215 215 215 215 216 216 216 217 216 216 216 216 216 217 217 217 217 217 217 218 219 220 222 223 224 225 225 226 226 226 226 226 227 227 228 228 229 229 229 230 230 230 230 231 231 231 232 232 233 233 234 235 235 236 237 237 238 238
248 247 245 244 242 241 239 237 236 234 232 230 229 227 225 224 222 221 220 219 218 217 217 216 216 215 215 215 215 215 215 215 216 216 216 217 217 217 217 216 217 217 217 217 217 217 217 217 218 219 221 222 224 224 225 226 226 226 226 226 227 227 227 228 228 229 229 230 230 230 231 231 231 232 232 233 233 234 234 235 236 236 237 238 238 238
248 246 245 243 242 240 239 237 235 233 232 230 228 227 225 224 222 221 220 218 218 217 216 216 215 215 215 214 214 215 215 215 216 216 216 217 217 217 217 217 217 217 217 217 217 217 216 217 217 218 220 221 223 224 225 225 226 226 226 226 227 227 227 228 228 229 229 229 230 230 231 231 232 232 232 233 233 234 235 235 236 236 237 238 238 239
247 246 244 243 241 240 238 237 235 233 232 230 228 227 225 224 222 221 220 218 218 217 216 216 215 215 215 214 214 214 215 215 215 216 216 217 217 217 217 217 217 217 217 217 217 217 217 217 217 218 219 220 222 223 224 225 226 226 226 226 227 227 227 228 228 229 229 229 230 230 231 231 232 232 233 233 234 234 235 235 236 237 237 238 238 239
247 245 244 242 241 240 238 237 235 234 232 230 229 227 226 224 223 221 220 219 218 217 216 216 215 215 214 214 214 214 214 215 215 216 216 216 217 217 217 217 217 217 217 217 217 217 217 217 217 217 218 219 220 222 224 225 225 226 226 226 227 227 227 228 228 229 229 230 230 231 231 231 232 232 233 233 234 234 235 236 236 237 237 238 238 239
246 244 243 242 241 239 238 237 235 234 232 230 229 227 226 225 223 222 221 219 218 217 216 216 215 215 214 214 214 214 214 215 215 215 216 216 217 217 217 217 217 218 217 217 217 217 217 217 217 217 218 219 220 221 222 224 225 226 226 227 227 227 227 228 228 229 229 229 230 230 231 231 232 232 233 233 234 234 235 235 236 236 237 237 238 238
245 243 242 241 240 239 238 237 235 234 232 231 229 228 226 225 224 223 221 220 219 218 217 216 216 215 215 214 214 214 214 215 215 215 216 216 217 217 217 218 218 218 218 218 218 217 217 217 217 217 218 218 219 220 221 223 224 225 226 226 227 227 227 228 228 228 229 229 230 230 231 231 232 232 233 233 234 234 235 235 236 236 237 237 237 238
244 243 241 240 239 238 237 236 235 234 233 231 230 228 227 226 225 224 222 221 220 219 218 217 216 216 215 215 214 214 214 215 215 215 216 216 216 217 217 218 218 218 218 218 218 218 218 217 217 217 218 218 219 220 221 222 223 224 225 226 227 227 227 227 228 228 229 229 230 230 231 231 232 232 233 233 234 234 235 235 235 236 236 237 237 237
244 242 240 239 238 237 236 236 235 234 233 231 230 229 227 226 225 224 223 222 221 219 218 218 217 216 216 215 215 215 214 215 215 215 216 216 216 217 217 217 218 218 218 218 218 218 218 218 218 218 218 218 219 219 220 221 222 223 224 225 226 227 227 228 228 228 229 229 229 230 230 231 231 232 232 233 233 234 234 235 235 235 236 236 237 237
Height
10557 10557 10559 10559 10558 10557 10557 10557 10557 10557 10557 10559 10560 10562 10565 10568 10572 10576 10580 10584 10587 10592 10596 10601 10605 10610 10614 10619 10624 10629 10634 10636 10639 10641 10644 10646 10649 10652 10655 10657 10658 10659 10661 10662 10663 10666 10669 10672 10675 10676 10677 10679 10681 10685 10689 10690 10692 10695 10698 10701 10704 10708 10712 10713 10714 10715 10717 10719 10722 10725 10727 10730 10732 10735 10737 10739 10741 10742 10744 10746 10747 10749 10751 10752 10754 10756
10552 10552 10553 10554 10554 10553 10552 10553 10553 10553 10553 10554 10556 10557 10560 10563 10567 10571 10575 10579 10582 10586 10591 10596 10601 10605 10610 10615 10620 10625 10629 10631 10635 10638 10640 10642 10644 10647 10649 10652 10653 10654 10656 10657 10659 10660 10662 10665 10668 10671 10673 10674 10676 10678 10682 10685 10687 10691 10692 10696 10698 10702 10706 10707 10708 10709 10711 10713 10716 10718 10720 10722 10724 10727 10729 10731 10734 10736 10739 10741 10743 10744 10746 10747 10749 10751
10546 10547 10547 10548 10549 10548 10548 10548 10548 10549 10549 10549 10551 10552 10555 10557 10561 10565 10569 10574 10577 10581 10586 10591 10596 10601 10606 10611 10616 10621 10623 10626 10631 10634 10636 10637 10640 10643 10646 10646 10647 10649 10651 10652 10654 10654 10656 10658 10661 10663 10666 10669 10671 10672 10676 10679 10683 10686 10687 10690 10693 10696 10699 10701 10703 10704 10705 10707 10709 10711 10714 10716 10717 10720 10722 10725 10728 10731 10734 10736 10738 10739 10741 10742 10744 10747
10541 10541 10542 10543 10543 10543 10543 10543 10544 10544 10544 10545 10546 10547 10549 10552 10556 10560 10564 10568 10572 10576 10580 10584 10590 10595 10601 10606 10611 10614 10617 10620 10624 10629 10631 10633 10636 10639 10641 10643 10644 10646 10647 10647 10648 10649 10651 10652 10654 10657 10660 10663 10666 10668 10671 10674 10677 10680 10682 10685 10687 10690 10693 10696 10698 10699 10701 10702 10704 10706 10708 10711 10713 10715 10717 10720 10723 10726 10729 10731 10733 10735 10736 10738 10740 10742
10536 10536 10537 10537 10538 10538 10538 10539 10539 10539 10540 10541 10542 10543 10545 10547 10551 10554 10558 10562 10567 10571 10575 10579 10584 10589 10594 10599 10604 10607 10610 10613 10617 10621 10624 10627 10631 10634 10636 10639 10640 10641 10642 10642 10643 10644 10646 10647 10650 10652 10654 10657 10661 10664 10667 10670 10672 10675 10678 10681 10682 10685 10689 10690 10691 10693 10696 10699 10700 10701 10703 10706 10709 10711 10713 10716 10718 10721 10724 10726 10727 10729 10731 10734 10736 10737
10529 10531 10531 10532 10532 10532 10533 10534 10534 10534 10535 10536 10537 10538 10539 10542 10545 10549 10552 10557 10561 10565 10569 10574 10578 10582 10586 10592 10598 10602 10603 10606 10610 10614 10617 10621 10624 10627 10630 10632 10635 10637 10637 10638 10638 10639 10641 10642 10645 10647 10650 10652 10656 10659 10662 10665 10667 10670 10672 10675 10678 10681 10684 10684 10686 10689 10692 10696 10697 10697 10699 10701 10704 10706 10709 10711 10714 10716 10719 10721 10722 10724 10726 10729 10731 10733
10523 10524 10526 10526 10527 10527 10528 10528 10529 10529 10531 10531 10532 10533 10534 10537 10539 10543 10547 10551 10555 10559 10564 10568 10572 10576 10579 10584 10590 10596 10599 10601 10604 10609 10612 10616 10619 10622 10624 10627 10629 10632 10633 10634 10634 10635 10636 10637 10640 10643 10646 10648 10651 10654 10656 10659 10662 10664 10666 10669 10673 10676 10678 10680 10681 10684 10687 10691 10692 10693 10695 10696 10699 10701 10703 10706 10708 10711 10713 10715 10717 10719 10721 10724 10726 10728
10516 10518 10520 10521 10521 10522 10522 10523 10524 10524 10525 10526 10527 10528 10529 10531 10534 10537 10541 10544 10549 10553 10558 10562 10567 10570 10574 10578 10582 10587 10592 10596 10600 10605 10609 10612 10614 10617 10621 10623 10625 10627 10628 10629 10630 10631 10632 10633 10636 10639 10641 10643 10645 10647 10651 10654 10656 10658 10661 10664 10667 10670 10673 10674 10676 10678 10681 10684 10687 10689 10691 10692 10693 10696 10698 10700 10702 10705 10707 10710 10712 10714 10717 10719 10721 10722
10510 10512 10514 10515 10516 10516 10517 10517 10518 10519 10520 10521 10522 10522 10524 10526 10529 10531 10535 10539 10543 10547 10552 10557 10561 10564 10568 10572 10577 10581 10584 10588 10593 10599 10604 10608 10611 10614 10617 10619 10621 10622 10623 10624 10626 10627 10628 10630 10632 10634 10636 10638 10640 10642 10644 10647 10651 10654 10656 10659 10661 10664 10667 10668 10670 10673 10675 10677 10681 10684 10686 10688 10689 10691 10692 10695 10697 10700 10702 10705 10707 10710 10712 10714 10716 10717
10504 10506 10507 10509 10510 10511 10511 10512 10512 10514 10515 10516 10517 10517 10519 10521 10523 10526 10529 10533 10537 10541 10546 10550 10554 10557 10562 10566 10571 10575 10578 10582 10587 10592 10599 10603 10607 10609 10612 10614 10616 10617 10618 10619 10621 10622 10624 10626 10628 10630 10632 10634 10635 10637 10639 10642 10645 10649 10652 10654 10657 10659 10661 10663 10665 10667 10669 10672 10675 10679 10682 10684 10684 10685 10687 10689 10692 10695 10697 10701 10703 10704 10707 10708 10710 10712
10498 10499 10501 10502 10504 10506 10506 10506 10507 10508 10509 10510 10511 10512 10514 10516 10518 10521 10524 10527 10531 10536 10540 10544 10547 10551 10556 10560 10565 10569 10572 10577 10582 10587 10593 10597 10601 10604 10606 10608 10610 10612 10613 10614 10616 10617 10620 10622 10624 10626 10627 10629 10631 10632 10634 10637 10639 10642 10647 10650 10652 10654 10656 10658 10660 10662 10664 10666 10669 10672 10676 10679 10680 10681 10682 10684 10687 10690 10692 10696 10697 10699 10701 10702 10704 10706
10492 10493 10494 10496 10498 10499 10501 10501 10502 10502 10504 10504 10506 10507 10509 10510 10512 10515 10518 10522 10526 10530 10534 10537 10541 10546 10550 10555 10559 10564 10567 10571 10576 10582 10587 10592 10596 10599 10601 10603 10604 10606 10607 10609 10610 10612 10615 10617 10619 10621 10622 10624 10626 10627 10630 10632 10634 10637 10640 10644 10647 10649 10651 10651 10654 10657 10659 10661 10662 10665 10669 10672 10675 10677 10679 10680 10682 10684 10687 10690 10691 10692 10695 10697 10698 10700
10486 10487 10488 10490 10492 10493 10495 10496 10496 10497 10498 10499 10500 10501 10502 10504 10507 10509 10512 10516 10520 10524 10527 10531 10535 10539 10544 10549 10554 10558 10562 10566 10570 10576 10581 10586 10590 10594 10596 10598 10599 10601 10602 10603 10605 10607 10609 10612 10614 10616 10618 10619 10621 10622 10624 10627 10630 10632 10634 10636 10640 10643 10644 10644 10646 10650 10654 10655 10657 10659 10661 10665 10668 10671 10674 10675 10677 10679 10681 10684 10686 10687 10689 10691 10692 10694
10479 10481 10482 10484 10485 10487 10489 10490 10491 10491 10492 10493 10494 10496 10497 10499 10501 10504 10507 10510 10514 10518 10522 10525 10529 10534 10538 10543 10547 10552 10556 10560 10564 10569 10574 10579 10583 10587 10590 10592 10594 10596 10596 10598 10599 10601 10603 10606 10609 10611 10612 10614 10615 10616 10616 10619 10622 10625 10627 10629 10632 10634 10637 10639 10640 10642 10646 10648 10651 10653 10656 10659 10662 10664 10667 10669 10671 10673 10676 10679 10681 10682 10684 10686 10687 10689
10472 10474 10475 10477 10479 10481 10482 10484 10485 10486 10486 10487 10489 10490 10492 10493 10495 10497 10501 10504 10508 10512 10516 10520 10524 10527 10532 10537 10542 10546 10551 10554 10557 10562 10568 10573 10577 10581 10584 10586 10589 10591 10592 10593 10594 10595 10597 10601 10603 10605 10607 10609 10609 10611 10611 10612 10614 10616 10619 10622 10624 10627 10629 10632 10634 10636 10639 10641 10644 10647 10650 10653 10656 10659 10661 10663 10665 10667 10670 10674 10677 10677 10677 10681 10682 10684
10466 10467 10469 10470 10472 10474 10476 10477 10479 10480 10481 10482 10483 10484 10486 10487 10489 10491 10494 10497 10502 10506 10510 10514 10517 10521 10526 10530 10535 10539 10544 10548 10552 10556 10561 10565 10570 10574 10578 10580 10582 10585 10587 10587 10588 10589 10592 10595 10597 10599 10601 10603 10604 10606 10607 10607 10609 10609 10611 10614 10617 10619 10622 10624 10626 10630 10633 10636 10639 10642 10645 10647 10650 10652 10655 10657 10659 10661 10664 10668 10672 10673 10672 10674 10677 10679
10460 10461 10462 10463 10465 10467 10469 10471 10472 10474 10475 10476 10477 10479 10480 10481 10482 10485 10487 10491 10495 10500 10504 10507 10511 10515 10519 10524 10528 10533 10537 10542 10545 10549 10553 10557 10562 10568 10572 10574 10576 10578 10581 10582 10582 10584 10586 10589 10591 10592 10595 10597 10599 10600 10602 10603 10604 10604 10605 10607 10609 10612 10615 10617 10619 10622 10626 10631 10634 10636 10639 10642 10645 10647 10649 10651 10653 10656 10658 10661 10664 10667 10667 10669 10671 10673
10453 10454 10455 10456 10458 10460 10462 10464 10466 10467 10469 10470 10471 10472 10474 10476 10477 10479 10481 10484 10489 10493 10497 10501 10504 10508 10512 10517 10522 10527 10532 10536 10539 10542 10546 10551 10556 10561 10565 10568 10569 10571 10573 10575 10576 10578 10581 10583 10585 10587 10589 10591 10593 10595 10596 10597 10598 10599 10601 10602 10604 10606 10609 10611 10613 10616 10620 10624 10628 10631 10633 10636 10639 10642 10642 10645 10647 10650 10652 10655 10657 10659 10661 10664 10666 10667
10446 10447 10448 10449 10451 10453 10455 10457 10459 10461 10463 10464 10465 10466 10468 10469 10471 10472 10474 10477 10481 10486 10489 10494 10497 10501 10506 10510 10514 10519 10525 10529 10532 10535 10539 10543 10548 10553 10558 10561 10563 10565 10567 10569 10571 10572 10575 10577 10579 10581 10583 10586 10587 10590 10591 10592 10594 10595 10596 10597 10599 10601 10602 10605 10608 10611 10615 10619 10622 10624 10627 10631 10633 10636 10638 10640 10642 10646 10647 10649 10651 10653 10656 10658 10661 10661
10439 10440 10441 10442 10444 10446 10448 10449 10452 10454 10456 10457 10459 10460 10462 10463 10465 10466 10468 10471 10474 10477 10482 10486 10491 10495 10499 10503 10507 10512 10517 10522 10526 10528 10531 10535 10539 10545 10551 10554 10556 10557 10560 10562 10564 10566 10569 10571 10574 10576 10578 10580 10582 10584 10587 10588 10589 10591 10592 10594 10595 10596 10597 10599 10602 10606 10611 10614 10617 10619 10621 10624 10627 10630 10633 10636 10639 10641 10644 10645 10646 10648 10650 10652 10654 10655
10431 10432 10434 10436 10437 10439 10441 10442 10444 10447 10449 10451 10452 10454 10455 10457 10459 10460 10462 10464 10467 10470 10474 10479 10483 10487 10492 10496 10501 10506 10512 10516 10519 10521 10524 10527 10531 10537 10542 10546 10548 10550 10552 10554 10557 10559 10562 10565 10567 10570 10573 10575 10577 10579 10581 10583 10585 10586 10587 10588 10590 10592 10593 10595 10597 10600 10604 10608 10612 10614 10616 10618 10621 10624 10627 10630 10632 10635 10637 10639 10641 10642 10644 10646 10647 10647
10424 10425 10427 10429 10430 10431 10432 10435 10437 10439 10441 10444 10446 10447 10448 10450 10452 10454 10456 10457 10460 10462 10467 10471 10475 10479 10484 10489 10494 10499 10505 10509 10512 10514 10516 10519 10524 10529 10534 10538 10541 10542 10544 10547 10550 10553 10556 10559 10561 10564 10566 10569 10572 10574 10576 10577 10579 10581 10582 10584 10584 10586 10587 10590 10592 10594 10598 10601 10605 10608 10611 10613 10616 10619 10621 10624 10627 10629 10631 10633 10634 10636 10638 10639 10640 10641
10416 10417 10419 10421 10422 10424 10426 10427 10429 10431 10434 10436 10437 10439 10441 10443 10445 10447 10449 10451 10453 10455 10458 10462 10466 10471 10477 10481 10486 10491 10497 10501 10503 10505 10507 10512 10516 10521 10525 10529 10532 10535 10537 10539 10542 10546 10550 10552 10554 10557 10559 10562 10565 10568 10571 10572 10574 10575 10577 10578 10579 10581 10582 10584 10586 10589 10592 10595 10598 10601 10604 10607 10609 10612 10616 10619 10622 10624 10626 10627 10629 10631 10632 10633 10634 10636
10407 10409 10411 10413 10414 10416 10418 10420 10422 10424 10426 10427 10429 10431 10434 10436 10438 10440 10442 10444 10446 10447 10450 10454 10459 10464 10469 10474 10478 10483 10489 10492 10496 10497 10501 10504 10507 10511 10516 10521 10525 10527 10529 10531 10535 10539 10542 10546 10547 10550 10552 10555 10558 10561 10564 10567 10569 10571 10572 10573 10574 10576 10577 10579 10581 10583 10585 10588 10591 10594 10597 10601 10603 10606 10609 10612 10615 10617 10619 10621 10622 10624 10625 10626 10627 10629
10399 10401 10403 10405 10406 10408 10410 10412 10414 10416 10417 10419 10421 10424 10426 10429 10431 10433 10436 10437 10439 10441 10444 10447 10451 10456 10460 10464 10469 10474 10479 10484 10487 10491 10494 10496 10498 10501 10507 10513 10517 10519 10520 10523 10527 10532 10536 10538 10541 10543 10546 10549 10551 10554 10556 10559 10562 10565 10567 10569 10569 10571 10572 10574 10576 10577 10580 10582 10585 10588 10591 10594 10597 10599 10602 10605 10608 10611 10612 10614 10616 10618 10619 10621 10622 10623
10390 10392 10394 10396 10398 10400 10402 10404 10406 10407 10409 10411 10413 10416 10418 10421 10423 10426 10427 10429 10431 10434 10436 10439 10442 10446 10449 10454 10459 10464 10470 10475 10479 10483 10486 10487 10489 10493 10500 10506 10509 10510 10512 10516 10520 10524 10528 10531 10533 10536 10539 10541 10544 10547 10549 10552 10556 10558 10561 10563 10565 10566 10567 10568 10570 10572 10574 10576 10579 10582 10585 10587 10591 10593 10596 10598 10601 10604 10606 10608 10611 10612 10614 10615 10616 10618
10380 10382 10385 10387 10389 10391 10393 10395 10397 10399 10401 10402 10404 10407 10410 10412 10415 10417 10419 10421 10423 10426 10429 10432 10434 10436 10440 10445 10450 10455 10461 10466 10471 10475 10477 10479 10482 10486 10492 10496 10499 10502 10505 10508 10512 10516 10519 10522 10525 10528 10531 10534 10537 10540 10543 10546 10549 10551 10554 10556 10559 10561 10562 10563 10565 10567 10569 10571 10573 10575 10577 10580 10583 10586 10589 10592 10594 10597 10599 10602 10605 10607 10609 10611 10612 10613
10369 10372 10375 10377 10380 10382 10384 10386 10388 10390 10392 10394 10396 10398 10401 10404 10406 10407 10409 10411 10415 10419 10422 10424 10426 10429 10432 10437 10441 10446 10451 10457 10462 10466 10468 10471 10475 10479 10482 10486 10490 10494 10497 10501 10504 10507 10510 10513 10517 10520 10524 10527 10530 10533 10536 10539 10542 10544 10547 10549 10552 10554 10556 10558 10559 10561 10563 10565 10567 10569 10571 10573 10576 10579 10582 10585 10587 10590 10593 10596 10599 10601 10604 10606 10607 10608
10357 10361 10364 10367 10370 10372 10375 10377 10379 10381 10382 10384 10387 10389 10392 10394 10396 10397 10399 10403 10407 10411 10414 10416 10418 10421 10424 10427 10431 10436 10442 10448 10452 10456 10459 10464 10467 10471 10472 10476 10482 10487 10490 10493 10496 10499 10502 10506 10509 10512 10516 10519 10523 10526 10529 10532 10534 10537 10540 10542 10545 10547 10550 10552 10554 10556 10557 10560 10561 10563 10565 10567 10569 10572 10574 10577 10580 10583 10586 10589 10592 10595 10597 10600 10601 10602
10346 10350 10354 10357 10360 10362 10365 10367 10369 10371 10373 10375 10377 10380 10382 10385 10387 10388 10391 10396 10399 10402 10404 10407 10410 10413 10416 10419 10422 10427 10432 10437 10441 10446 10451 10456 10459 10461 10463 10468 10474 10479 10482 10486 10489 10492 10495 10497 10501 10504 10508 10512 10516 10519 10522 10525 10527 10530 10532 10535 10538 10541 10543 10546 10548 10550 10552 10554 10556 10557 10560 10562 10564 10566 10567 10570 10572 10576 10579 10582 10585 10588 10590 10592 10594 10595
10334 10338 10342 10345 10348 10352 10355 10357 10359 10362 10364 10366 10367 10370 10372 10375 10377 10379 10382 10387 10389 10391 10394 10398 10402 10405 10408 10411 10415 10419 10423 10426 10430 10436 10442 10447 10450 10451 10454 10460 10466 10470 10473 10477 10481 10484 10486 10488 10491 10496 10500 10504 10507 10511 10514 10517 10520 10522 10526 10528 10531 10534 10536 10539 10541 10544 10546 10547 10550 10552 10554 10556 10559 10561 10562 10564 10566 10568 10572 10576 10579 10581 10583 10585 10587 10588
10322 10326 10329 10332 10336 10340 10344 10346 10349 10351 10354 10356 10357 10360 10362 10364 10367 10370 10373 10376 10379 10381 10385 10389 10394 10397 10400 10404 10407 10409 10412 10415 10419 10426 10433 10437 10439 10441 10446 10452 10456 10459 10463 10469 10473 10475 10477 10479 10482 10487 10492 10496 10499 10503 10506 10509 10512 10516 10518 10521 10524 10526 10529 10531 10534 10537 10539 10541 10543 10546 10548 10551 10553 10556 10557 10559 10560 10561 10564 10567 10571 10575 10577 10579 10580 10581
10311 10314 10317 10321 10324 10328 10331 10334 10337 10341 10343 10345 10347 10349 10352 10354 10357 10360 10362 10366 10369 10372 10376 10381 10384 10387 10391 10394 10397 10399 10401 10404 10409 10416 10422 10426 10429 10432 10437 10443 10447 10450 10454 10461 10465 10467 10468 10470 10474 10478 10483 10487 10491 10494 10497 10501 10504 10507 10511 10514 10516 10519 10521 10524 10527 10530 10532 10534 10537 10539 10542 10544 10547 10549 10551 10553 10554 10556 10557 10560 10564 10567 10570 10572 10574 10575
10299 10302 10305 10308 10312 10315 10318 10322 10325 10329 10331 10334 10336 10339 10341 10344 10346 10349 10352 10355 10359 10362 10366 10370 10374 10378 10381 10385 10387 10390 10392 10396 10401 10406 10411 10415 10418 10422 10429 10434 10438 10441 10446 10452 10457 10459 10461 10463 10466 10470 10475 10479 10482 10486 10489 10493 10496 10499 10502 10506 10508 10511 10514 10517 10521 10523 10525 10527 10530 10532 10535 10537 10541 10543 10545 10547 10548 10549 10551 10554 10557 10560 10563 10565 10567 10569
10286 10289 10292 10296 10299 10302 10305 10309 10312 10316 10319 10322 10324 10327 10330 10332 10336 10338 10341 10344 10348 10352 10356 10359 10364 10367 10371 10375 10378 10381 10384 10387 10391 10395 10400 10404 10408 10413 10419 10424 10427 10431 10437 10443 10448 10451 10453 10455 10458 10462 10466 10470 10474 10477 10481 10485 10487 10491 10494 10497 10501 10503 10506 10510 10513 10516 10518 10521 10523 10526 10528 10531 10534 10536 10539 10541 10542 10544 10546 10548 10551 10554 10556 10559 10561 10563
10272 10276 10279 10282 10286 10289 10292 10295 10299 10302 10305 10309 10312 10315 10318 10321 10324 10327 10331 10334 10337 10341 10345 10349 10353 10357 10361 10364 10368 10371 10374 10376 10380 10384 10389 10393 10397 10402 10409 10414 10417 10421 10427 10433 10438 10441 10444 10446 10449 10452 10457 10461 10465 10469 10472 10476 10479 10482 10486 10489 10492 10496 10499 10502 10506 10508 10511 10514 10516 10518 10521 10524 10526 10529 10532 10534 10536 10538 10540 10542 10545 10547 10550 10552 10555 10557
10258 10261 10264 10267 10271 10275 10278 10281 10284 10287 10291 10294 10298 10302 10306 10309 10313 10316 10319 10322 10326 10330 10334 10337 10342 10346 10350 10354 10357 10360 10363 10366 10371 10375 10379 10383 10387 10392 10397 10402 10406 10411 10417 10423 10428 10432 10435 10437 10440 10444 10448 10452 10456 10459 10462 10466 10471 10475 10478 10481 10484 10487 10491 10494 10497 10501 10504 10506 10509 10511 10513 10516 10519 10522 10524 10527 10529 10531 10533 10536 10538 10541 10544 10546 10549 10551
10242 10245 10248 10252 10256 10260 10263 10266 10269 10272 10276 10279 10284 10288 10292 10297 10301 10304 10308 10311 10315 10318 10322 10326 10330 10334 10338 10342 10346 10350 10354 10357 10362 10366 10369 10372 10377 10381 10386 10391 10395 10400 10407 10412 10417 10422 10426 10429 10432 10436 10440 10443 10446 10449 10453 10457 10462 10467 10469 10472 10475 10479 10482 10486 10490 10493 10496 10499 10501 10504 10506 10509 10512 10514 10517 10519 10522 10524 10527 10529 10531 10534 10537 10540 10542 10545
10226 10229 10232 10236 10240 10244 10247 10250 10253 10256 10260 10264 10269 10274 10279 10284 10288 10292 10296 10300 10303 10306 10310 10314 10317 10322 10326 10331 10335 10339 10343 10347 10352 10355 10358 10361 10366 10371 10375 10379 10384 10390 10396 10401 10406 10411 10417 10421 10423 10426 10429 10433 10436 10440 10444 10449 10454 10457 10460 10462 10467 10471 10475 10478 10482 10486 10489 10491 10494 10496 10499 10502 10505 10507 10510 10512 10515 10517 10519 10521 10524 10527 10530 10533 10536 10539
10210 10213 10217 10220 10224 10227 10231 10234 10237 10241 10245 10249 10254 10259 10265 10270 10275 10279 10283 10286 10290 10293 10297 10301 10305 10309 10314 10319 10324 10328 10332 10336 10339 10343 10346 10351 10355 10359 10364 10367 10372 10378 10384 10390 10396 10402 10407 10411 10414 10416 10419 10422 10427 10431 10436 10441 10445 10448 10451 10455 10460 10464 10467 10470 10474 10477 10481 10483 10486 10489 10492 10494 10497 10500 10503 10505 10507 10510 10512 10514 10517 10519 10522 10526 10529 10532
10195 10198 10201 10204 10207 10211 10215 10218 10222 10226 10231 10235 10240 10244 10250 10255 10259 10264 10267 10272 10276 10279 10284 10288 10292 10297 10302 10307 10312 10316 10320 10324 10327 10331 10335 10339 10344 10348 10352 10356 10361 10366 10372 10378 10385 10391 10397 10401 10404 10406 10410 10414 10418 10422 10426 10431 10434 10439 10442 10447 10452 10455 10457 10461 10465 10469 10472 10476 10478 10481 10484 10487 10490 10493 10496 10498 10501 10503 10505 10508 10511 10513 10516 10519 10522 10524
10179 10182 10185 10188 10191 10195 10199 10203 10207 10211 10216 10221 10225 10229 10234 10239 10243 10247 10252 10257 10261 10266 10271 10275 10279 10284 10289 10294 10299 10304 10307 10312 10316 10319 10324 10328 10332 10337 10341 10345 10350 10355 10361 10367 10373 10380 10386 10390 10394 10397 10401 10404 10409 10412 10417 10421 10424 10429 10434 10439 10442 10445 10447 10452 10457 10461 10464 10467 10470 10473 10476 10479 10482 10486 10488 10491 10494 10496 10499 10502 10504 10507 10509 10512 10515 10518
10164 10167 10169 10172 10176 10181 10184 10188 10192 10197 10202 10206 10210 10214 10218 10222 10227 10232 10237 10242 10247 10251 10256 10261 10266 10271 10276 10281 10286 10291 10296 10299 10303 10307 10312 10316 10321 10325 10329 10334 10338 10344 10349 10356 10362 10367 10373 10379 10384 10387 10391 10394 10398 10402 10407 10411 10415 10420 10426 10430 10434 10437 10441 10446 10449 10452 10456 10459 10462 10465 10468 10471 10474 10477 10481 10484 10487 10489 10492 10495 10497 10500 10502 10505 10507 10511
10149 10152 10155 10158 10162 10166 10169 10173 10177 10182 10186 10191 10194 10199 10203 10208 10213 10218 10222 10227 10232 10237 10241 10247 10252 10257 10262 10268 10273 10278 10282 10287 10291 10295 10299 10304 10308 10313 10317 10322 10327 10332 10338 10344 10350 10356 10361 10367 10373 10377 10380 10384 10388 10393 10397 10401 10406 10411 10416 10421 10425 10429 10434 10437 10439 10442 10446 10451 10454 10457 10460 10463 10467 10470 10474 10477 10480 10483 10486 10488 10491 10493 10496 10498 10501 10504
10135 10138 10141 10144 10148 10151 10155 10159 10163 10167 10171 10176 10181 10185 10189 10194 10200 10204 10209 10213 10217 10222 10227 10233 10239 10244 10249 10256 10261 10265 10269 10274 10278 10282 10287 10291 10296 10301 10306 10311 10316 10321 10326 10332 10337 10343 10349 10356 10361 10366 10369 10374 10379 10384 10388 10392 10396 10401 10406 10411 10416 10420 10424 10426 10429 10432 10438 10442 10446 10448 10452 10456 10459 10463 10467 10470 10473 10476 10478 10481 10484 10486 10489 10492 10495 10498
10122 10125 10128 10131 10134 10138 10141 10145 10149 10153 10158 10163 10168 10172 10176 10181 10186 10191 10195 10199 10204 10209 10214 10220 10225 10231 10236 10242 10247 10251 10256 10261 10266 10269 10274 10279 10284 10289 10294 10299 10304 10309 10314 10320 10325 10331 10337 10344 10349 10354 10359 10364 10370 10375 10378 10381 10386 10391 10396 10401 10406 10411 10415 10417 10421 10426 10431 10434 10437 10439 10444 10448 10452 10456 10460 10462 10465 10467 10471 10474 10477 10480 10482 10485 10488 10491
10109 10112 10115 10118 10122 10125 10128 10132 10136 10141 10145 10150 10154 10158 10162 10167 10172 10177 10182 10186 10191 10196 10201 10207 10212 10218 10223 10227 10232 10238 10244 10249 10252 10256 10261 10266 10271 10276 10282 10287 10292 10297 10302 10308 10313 10319 10326 10332 10337 10343 10348 10355 10361 10365 10368 10371 10376 10381 10386 10391 10396 10401 10406 10409 10413 10417 10422 10424 10427 10431 10436 10441 10445 10449 10452 10454 10457 10460 10464 10467 10471 10474 10476 10479 10481 10484
10097 10100 10103 10106 10109 10112 10116 10119 10124 10128 10132 10136 10140 10145 10150 10155 10160 10164 10169 10174 10179 10184 10189 10194 10201 10206 10210 10214 10220 10226 10231 10235 10239 10242 10248 10253 10259 10264 10269 10274 10280 10286 10291 10297 10302 10307 10314 10321 10326 10332 10339 10346 10351 10354 10357 10361 10366 10371 10376 10380 10386 10392 10397 10400 10404 10407 10411 10415 10419 10424 10428 10433 10437 10441 10444 10446 10450 10454 10457 10461 10464 10467 10469 10472 10475 10477
10086 10089 10092 10094 10097 10101 10104 10107 10111 10115 10119 10123 10127 10132 10137 10142 10147 10152 10157 10162 10167 10172 10178 10183 10189 10194 10197 10202 10208 10214 10219 10222 10226 10230 10236 10241 10246 10251 10257 10262 10268 10274 10280 10286 10291 10297 10302 10309 10315 10322 10329 10335 10340 10344 10347 10351 10356 10361 10365 10369 10375 10381 10387 10390 10393 10397 10402 10407 10411 10416 10421 10425 10429 10432 10435 10439 10443 10447 10450 10453 10456 10459 10462 10465 10468 10471
10075 10077 10080 10083 10086 10089 10092 10096 10099 10103 10107 10111 10116 10121 10125 10129 10134 10139 10144 10150 10156 10161 10166 10172 10177 10181 10186 10191 10197 10202 10206 10209 10214 10219 10224 10229 10234 10239 10245 10251 10256 10262 10269 10275 10281 10286 10292 10298 10304 10311 10317 10323 10329 10333 10337 10342 10346 10351 10354 10359 10365 10371 10376 10379 10383 10388 10393 10398 10403 10407 10412 10417 10421 10424 10428 10432 10436 10439 10442 10445 10448 10452 10455 10458 10461 10464
10064 10066 10069 10072 10075 10078 10081 10085 10088 10092 10096 10099 10104 10108 10112 10117 10122 10127 10132 10138 10144 10150 10156 10160 10165 10170 10175 10180 10186 10190 10194 10197 10202 10207 10212 10216 10221 10227 10233 10239 10245 10251 10257 10264 10269 10276 10282 10287 10294 10300 10306 10312 10318 10323 10327 10332 10336 10340 10344 10349 10354 10359 10364 10369 10373 10378 10384 10389 10394 10398 10404 10409 10413 10417 10421 10426 10429 10431 10434 10437 10441 10444 10447 10451 10454 10457